Location: Cosy Dell
(34.2789°N, 117.4537°W)
Time: 21:11:51
(UTC+00:00)

Cosmos 2221 - Pass Details

Date: 14 July 2020
Orbit: 592 x 617 km, 82.5° (Epoch: 13 August)

Event Time Altitude Azimuth Distance (km) Brightness Sun altitude
Rises 05:05:12 0° 353° (N) 2,873 6.9 -21.0°
Reaches altitude 10° 05:07:26 10° 354° (N) 1,961 5.9 -21.3°
Maximum altitude 05:11:46 88° 78° (ENE) 608 2.4 -21.9°
Enters shadow 05:12:22 66° 169° (S) 658 2.4 -21.9°
